Jefferson, OH

5:33 PM EST on February 22, 2017 (GMT -0500)
Ashtabula County

Weather History for KHZY - September, 2013

Change the Weather History Date:

Monday, September 16, 2013

  Actual Average (KGKJ) Record (KGKJ)
Temperature  
Mean Temperature 54 °F -  
Max Temperature 64 °F 71 °F 91 °F (1991)
Min Temperature 46 °F 49 °F 36 °F (1966)
Degree Days  
Heating Degree Days 12    
Growing Degree Days 4 (Base 50)    
Moisture  
Dew Point 51 °F    
Average Humidity 85    
Maximum Humidity 94    
Minimum Humidity 75    
Precipitation  
Precipitation 0.02 in - - ()
Sea Level Pressure  
Sea Level Pressure 30.22 in    
Wind  
Wind Speed 2 mph (NE)    
Max Wind Speed 9 mph    
Max Gust Speed 16 mph    
Visibility 7 miles    
Events Fog , Rain    
Averages and records for this station are not official NWS values.
T = Trace of Precipitation, MM = Missing Value Source: NWS Daily Summary

Daily Weather History Graph

Daily Weather History Graph

Search for Another Location

Airport or City:

Trip Planner

Search our weather history database for the weather conditions in past years. The results will help you decide how hot, cold, wet, or windy it might be!

Date:

Astronomy

Sep. 16, 2013 Rise Set
Actual Time 7:04 AM EDT 7:30 PM EDT
Civil Twilight 6:36 AM EDT 7:57 PM EDT
Nautical Twilight 6:03 AM EDT 8:30 PM EDT
Astronomical Twilight 5:29 AM EDT 9:04 PM EDT
Moon 5:39 PM EDT (9/16) 3:46 AM EDT (9/16)
Length of Visible Light 13h 21m
Length of Day
12h 25m
Waxing Gibbous, 90% of the Moon is Illuminated
Sep 16
Waxing Gibbous
Sep 19
Full
Sep 26
Last Quarter
Oct 4
New
Oct 11
First Quarter

Hourly Weather History & Observations

Time (EDT) Temp. Windchill Dew Point Humidity Pressure Visibility Wind Dir Wind Speed Gust Speed Precip Events Conditions
12:53 AM 57.0 °F - 54.0 °F 89% 30.12 in 8.0 mi Calm Calm - 0.01 in Rain Light Rain
1:26 AM 57.2 °F - 53.6 °F 88% 30.13 in 8.0 mi North 3.5 mph - 0.00 in Rain Light Rain
1:50 AM 57.2 °F - 53.6 °F 88% 30.13 in 6.0 mi East 3.5 mph - 0.00 in   Overcast
1:53 AM 57.0 °F - 52.0 °F 83% 30.13 in 7.0 mi Calm Calm - 0.00 in   Overcast
2:53 AM 55.9 °F - 53.1 °F 90% 30.12 in 10.0 mi Calm Calm - 0.00 in   Overcast
3:53 AM 55.9 °F - 53.1 °F 90% 30.12 in 9.0 mi Calm Calm - N/A   Overcast
4:53 AM 55.9 °F - 53.1 °F 90% 30.13 in 8.0 mi Calm Calm - N/A   Overcast
5:53 AM 55.9 °F - 53.1 °F 90% 30.14 in 7.0 mi Calm Calm - N/A   Overcast
6:36 AM 53.6 °F - 51.8 °F 94% 30.16 in 1.5 mi Calm Calm - N/A   Scattered Clouds
6:40 AM 53.6 °F - 51.8 °F 94% 30.16 in 0.8 mi Calm Calm - N/A   Mostly Cloudy
6:53 AM 53.1 °F - 51.1 °F 93% 30.17 in 0.5 mi Calm Calm - N/A Fog Fog
7:17 AM 53.6 °F - 51.8 °F 94% 30.17 in 1.2 mi Calm Calm - 0.01 in   Mostly Cloudy
7:24 AM 53.6 °F - 51.8 °F 94% 30.17 in 3.0 mi Calm Calm - 0.01 in   Mostly Cloudy
7:33 AM 53.6 °F - 50.0 °F 88% 30.18 in 2.5 mi Calm Calm - 0.01 in   Mostly Cloudy
7:41 AM 53.6 °F - 51.8 °F 94% 30.18 in 4.0 mi Calm Calm - 0.01 in   Mostly Cloudy
7:53 AM 53.1 °F - 51.1 °F 93% 30.18 in 4.0 mi Calm Calm - 0.01 in   Mostly Cloudy
8:53 AM 57.0 °F - 53.1 °F 87% 30.19 in 10.0 mi West 3.5 mph - N/A   Mostly Cloudy
9:48 AM 60.8 °F - 53.6 °F 77% 30.21 in 10.0 mi WNW 3.5 mph - N/A   Mostly Cloudy
10:53 AM 61.0 °F - 53.1 °F 75% 30.22 in 10.0 mi NW 5.8 mph - N/A   Overcast
11:04 AM 60.8 °F - 53.6 °F 77% 30.23 in 10.0 mi Variable 4.6 mph - N/A   Overcast
11:21 AM 60.8 °F - 53.6 °F 77% 30.23 in 10.0 mi Variable 6.9 mph 16.1 mph N/A   Mostly Cloudy
1:53 PM 60.1 °F - 53.1 °F 78% 30.27 in 10.0 mi North 9.2 mph - N/A   Unknown
2:07 PM 59.0 °F - 51.8 °F 77% 30.27 in 10.0 mi NNE 5.8 mph - N/A   Overcast
2:53 PM 57.9 °F - 50.0 °F 75% 30.28 in 10.0 mi Variable 6.9 mph - N/A   Overcast
3:53 PM 57.0 °F - 50.0 °F 77% 30.29 in 10.0 mi NE 6.9 mph - N/A   Unknown
4:03 PM 57.2 °F - 50.0 °F 77% 30.29 in 10.0 mi NNE 8.1 mph - N/A   Overcast
4:22 PM 55.4 °F - 50.0 °F 82% 30.28 in 10.0 mi ENE 5.8 mph - N/A   Overcast
4:53 PM 57.0 °F - 50.0 °F 77% 30.29 in 10.0 mi Variable 4.6 mph - N/A   Overcast
6:54 PM 55.9 °F - 48.9 °F 77% 30.31 in - ENE 4.6 mph - N/A   Unknown
8:53 PM 48.9 °F - 46.0 °F 90% 30.34 in 6.0 mi Calm Calm - N/A   Clear
9:53 PM 48.0 °F - 44.1 °F 86% 30.35 in 10.0 mi East 3.5 mph - N/A   Clear
10:53 PM 46.9 °F - 43.0 °F 86% 30.35 in 10.0 mi East 5.8 mph - N/A   Clear
11:53 PM 46.0 °F 43.1 °F 42.1 °F 86% 30.36 in 10.0 mi East 5.8 mph - N/A   Clear